Home > Time Zones > World Clock > Weather > India > Theni > Past weeks

Flag for India Weather past 2 weeks in Theni, Tamil Nadu, India

Now
77 °F

Haze.


Feels Like: 79 °F
Forecast: 72 / 92 °F
Wind: No wind

Location: Coimbatore / Peelamedu

Current Time: Apr 19, 2015 at 5:10:58 AM

Latest Report: Apr 19, 2015 at 4:00 AM


Visibility: 2 mi

Pressure: 29.80 "Hg

Humidity: 79%

Dew point: 70 °F

Location of TheniLocation

Historic Weather in Theni — Graph

°F

Theni temperature yesterday

Maximum temperature yesterday: 93 °F (at 3:30 PM)
Minimum temperature yesterday: 73 °F (at 12:00 AM)
Average temperature yesterday: 83 °F

Past Weeks' High & Low Weather Summary

 TemperatureHumidityPressure
High99 °F (Apr 4, 4:00 PM)100% (Apr 16, 3:00 AM)30.07 "Hg (Apr 16, 3:00 AM)
Low72 °F (Apr 17, 5:30 AM)25% (Apr 5, 4:30 PM)27.25 "Hg (Apr 6, 1:30 AM)
Average84 °F65%29.88 "Hg
* Reported Apr 4 4:30 AM — Apr 19 4:00 AM, Theni, Weather by CustomWeather, © 2015

Note: Actual official high and low records may vary slightly from our data, if they occured in-between our weather recording intervals... More about our weather records

Advertising

Theni weather history for previous 24 hours

 ConditionsComfort  
Time TempWeatherWind HumidityBarometerVisibility
4:00 AM
Sun, Apr 19
77 °FHaze.No wind79%29.80 "Hg2 mi
2:30 AM77 °FHaze.No wind74%29.83 "Hg2 mi
11:30 PM
Sat, Apr 18
79 °FHaze.3 mph74%29.86 "Hg2 mi
11:00 PM79 °FHaze.7 mph65%29.89 "Hg2 mi
10:30 PM79 °FHaze.6 mph65%29.86 "Hg2 mi
9:30 PM81 °FHaze.6 mph62%29.86 "Hg2 mi
9:00 PM81 °FHaze.No wind58%29.86 "Hg2 mi
8:30 PM81 °FHaze.No wind58%29.86 "Hg3 mi
6:30 PM82 °FThunderstorms. Scattered clouds.No wind58%29.80 "Hg3 mi
6:00 PM84 °FThunderstorms. Scattered clouds.8 mph55%29.77 "Hg3 mi
5:00 PM88 °FScattered clouds.12 mph52%29.74 "Hg4 mi
4:30 PM93 °FScattered clouds.No wind39%29.74 "Hg4 mi
4:00 PM93 °FScattered clouds.6 mph39%29.74 "Hg4 mi
3:30 PM93 °FPassing clouds.5 mph36%29.74 "Hg4 mi
3:00 PM91 °FPassing clouds.12 mph41%29.74 "Hg4 mi
2:30 PM91 °FPassing clouds.2 mph41%29.77 "Hg4 mi
1:30 PM90 °FPassing clouds.9 mph46%29.83 "Hg4 mi
1:00 PM90 °FHaze.No wind46%29.83 "Hg3 mi
12:30 PM90 °FHaze.3 mph46%29.86 "Hg3 mi
12:00 PM88 °FHaze.2 mph49%29.89 "Hg3 mi
11:30 AM86 °FHaze.No wind52%29.89 "Hg3 mi
10:30 AM84 °FHaze.No wind58%29.92 "Hg2 mi
10:00 AM82 °FHaze.No wind66%29.92 "Hg2 mi
9:30 AM81 °FHaze.No wind70%29.92 "Hg2 mi
9:00 AM81 °FHaze.No wind66%29.92 "Hg2 mi
8:30 AM79 °FHaze.No wind74%29.92 "Hg2 mi
8:00 AM77 °FFog.No wind79%29.89 "Hg2 mi
7:30 AMN/AScattered clouds.No windN/A29.89 "Hg2 mi
5:30 AM73 °FPassing clouds.No wind89%29.86 "Hg2 mi
Weather by CustomWeather, © 2015

See weather overviewHow to use our weather pages